Flag for Canada Weather past 2 weeks in Cambridge, Ontario, Canada

Now
59 °F

Passing clouds.


Feels Like: 59 °F
Forecast: 58 / 82 °F
Wind: 5 mph from East

Location: Waterloo Well

Current Time: Aug 30, 2014 at 12:52:55 AM

Latest Report: Aug 30, 2014 at 12:00 AM


Visibility: 9 mi

Pressure: 30.10 "Hg

Humidity: 94%

Dew point: 57 °F

Location of CambridgeLocation

Historic Weather in Cambridge — Graph

°F

Cambridge temperature yesterday

Maximum temperature yesterday: 73 °F (at 2:00 PM)
Minimum temperature yesterday: 46 °F (at 2:56 AM)
Average temperature yesterday: 59 °F

Past Weeks' High & Low Weather Summary

 TemperatureHumidityPressure
High84 °F (Aug 26, 2:00 PM)100% (Aug 17, 5:00 AM)30.20 "Hg (Aug 17, 5:00 AM)
Low45 °F (Aug 19, 5:03 AM)45% (Aug 25, 3:00 PM)29.82 "Hg (Aug 16, 5:50 PM)
Average63 °F82%30.01 "Hg
* Reported Aug 14 11:00 PM — Aug 29 11:00 PM, Cambridge, Weather by CustomWeather, © 2014

Note: Actual official high and low records may vary slightly from our data, if they occured in-between our weather recording intervals... More about our weather records

Advertising

Cambridge weather history for previous 24 hours

 ConditionsComfort  
Time TempWeatherWind HumidityBarometerVisibility
11:00 PM
Aug 29
59 °FPassing clouds.5 mph94%30.11 "Hg9 mi
10:00 PM61 °FPassing clouds.6 mph83%30.10 "Hg9 mi
9:00 PM64 °FMostly cloudy.10 mph73%30.11 "Hg9 mi
8:00 PM68 °FMostly cloudy.9 mph60%30.10 "Hg9 mi
7:00 PM70 °FPassing clouds.10 mph57%30.11 "Hg9 mi
6:00 PM73 °FPassing clouds.12 mph53%30.11 "Hg9 mi
5:00 PM73 °FPartly sunny.8 mph53%30.11 "Hg9 mi
3:00 PM73 °FPassing clouds.8 mph53%30.14 "Hg9 mi
2:00 PM73 °FSunny.7 mph53%30.15 "Hg9 mi
1:00 PM70 °FSunny.8 mph57%30.17 "Hg9 mi
12:00 PM68 °FSunny.7 mph60%30.18 "Hg9 mi
11:00 AM66 °FSunny.10 mph68%30.19 "Hg9 mi
10:00 AM63 °FSunny.9 mph77%30.20 "Hg9 mi
9:00 AM55 °FSunny.3 mph88%30.20 "Hg9 mi
8:00 AM52 °FPartly sunny.No wind94%30.20 "Hg9 mi
7:00 AM48 °FOvercast.2 mph100%30.19 "Hg9 mi
6:00 AM46 °FOvercast.2 mph100%30.17 "Hg9 mi
5:00 AM48 °FFog.No wind94%30.17 "Hg2 mi
4:51 AM48 °FFog.No wind94%30.16 "Hg1 mi
4:00 AM50 °FClear.No wind94%30.16 "Hg9 mi
3:00 AM48 °FFog.3 mph94%30.18 "Hg5 mi
2:56 AM46 °FFog.3 mph100%30.18 "Hg5 mi
2:04 AM50 °FClear.No wind94%30.17 "Hg9 mi
1:53 AM48 °FFog.2 mph94%30.17 "Hg2 mi
1:00 AM52 °FClear.No wind94%30.18 "Hg9 mi
12:00 AM52 °FClear.3 mph94%30.16 "Hg9 mi
Weather by CustomWeather, © 2014

See weather overviewHow to use our weather pages